User: anonymous   Login
Location: Kott?ru
(16.6209°N, 80.6208°E)
Time: 00:54:49
(UTC+00:00)
Language:

Cosmos 841 Rocket - Orbit

View from above orbital plane
View from above orbital plane
View from above satellite
View from above satellite

Ground track
Ground track

The orbit data is extracted from the following two-line orbital elements,

1  9023U 76069B   20336.32672483  .00000045  00000-0  22915-4 0  9993
2  9023  74.0429 285.3016 0016752 142.2940 217.9392 14.39666907326599
Epoch (UTC): 01 December 2020 07:50:29
Eccentricity: 0.0016752
inclination: 74.0429°
perigee height: 747 km
apogee height: 771 km
right ascension of ascending node: 285.3016°
argument of perigee: 142.2940°
revolutions per day: 14.39666907
mean anomaly at epoch: 217.9392°
orbit number at epoch: 32659

The dashed part of the orbit path shows where the satellite is in the earth's shadow,  

DLR